Regional Weather Roundup
Issued by NWS

Home | Current Version | Previous Version | Graphics & Text | Print | Product List | Glossary On
Versions: 1 2 3 4 5 6 7 8 9 10 11 12 13 14 15 16 17 18 19 20 21 22 23 24 25 26 27 28 29 30 31 32 33 34 35 36 37 38 39 40 41 42 43 44 45 46 47 48 49 50
000
ASUS43 KFSD 231302
RWRSD

WEATHER ROUNDUP FOR SOUTH DAKOTA
NATIONAL WEATHER SERVICE SIOUX FALLS SD
800 AM CDT MON APR 23 2018

NOTE: "FAIR" INDICATES FEW OR NO CLOUDS BELOW 12,000 FEET WITH NO
SIGNIFICANT WEATHER AND/OR OBSTRUCTIONS TO VISIBILITY.


SDZ001>005-009-010-012>017-231400-
NORTHWEST AND NORTH CENTRAL SOUTH DAKOTA

CITY           SKY/WX    TMP DP  RH WIND       PRES   REMARKS
BUFFALO          N/A     46  36  68 NE18      30.05R
FAITH            N/A     41  38  89 NE6       30.11R
MOBRIDGE       MOSUNNY   45  35  68 E7        30.14R
$$

SDZ012>016-024>037-041>051-057-063-072>074-231400-
SOUTHWEST AND SOUTH CENTRAL SOUTH DAKOTA

CITY           SKY/WX    TMP DP  RH WIND       PRES   REMARKS
RAPID CTY ARPT SUNNY     40  36  86 VRB3      30.09R
PIERRE         SUNNY     41  37  86 CALM      30.15R
CUSTER         CLEAR     36  32  85 NW3       30.10S
ELLSWORTH AFB  SUNNY     52  37  58 CALM      30.10R
PHILIP         SUNNY     38  36  92 CALM      30.12R
PINE RIDGE     SUNNY     45  37  73 SW7       30.10S
SPEARFISH      FAIR      41  32  70 CALM      30.10R
WINNER         FAIR      47  37  68 S5        30.17R
$$

SDZ004>011-016>023-039-040-231400-
NORTHEAST SOUTH DAKOTA

CITY           SKY/WX    TMP DP  RH WIND       PRES   REMARKS
ABERDEEN       SUNNY     39  37  92 SE3       30.21R FOG
WATERTOWN      SUNNY     42  37  82 S7        30.21R
BROOKINGS      SUNNY     41  36  82 SE3       30.22R
SISSETON         N/A     39  37  92 SE5       30.20R
$$

SDZ017-020-022-023-036>040-048>070-231400-
SOUTHEAST SOUTH DAKOTA

CITY           SKY/WX    TMP DP  RH WIND       PRES   REMARKS
SIOUX FALLS    MOSUNNY   41  36  82 NE3       30.22R
HURON          SUNNY     41  38  89 SE7       30.19R
CHAMBERLAIN    SUNNY     41  41 100 CALM      30.18R
MITCHELL       SUNNY     42  39  89 SE6       30.20S FOG
YANKTON        SUNNY     41  39  93 E5        30.21R
$$

ABBREVIATIONS USED IN REMARKS
   TC - TEMPERATURE IN CELSIUS
  WCI - WIND CHILL INDEX
   HX - HEAT INDEX
  VSB - VISIBILITY




USA.gov is the U.S. government's official web portal to all federal, state and local government web resources and services.